EHI
0 1 1 2 4 5 4 2 1 0 0 0 0 0 0 0 0 0 0 0 0 0 0 0 0 0 0 0 0 0 0 0 0 0 0 0 0 0 0 0 0 0 0
1 2 2 2 4 5 4 4 3 1 1 1 0 0 0 0 0 0 0 0 0 0 0 0 0 0 0 0 0 0 0 0 0 0 0 0 0 0 0 0 0 0 0
1 2 2 2 3 5 6 6 5 3 2 2 1 0 0 0 0 0 0 0 0 0 0 0 0 0 0 0 0 0 0 0 0 0 0 0 0 0 0 0 0 0 0
0 1 1 2 3 5 7 8 8 4 3 3 3 1 1 0 0 1 1 0 0 0 0 0 0 0 0 0 0 0 0 0 0 0 0 0 0 0 0 0 0 0 0
0 0 1 2 4 7 9 10 9 5 3 5 5 4 2 1 0 1 1 0 0 0 0 0 0 0 0 0 0 0 0 0 0 0 0 0 0 0 0 0 0 0 0
0 0 0 1 3 7 11 11 10 8 6 6 6 5 3 1 0 1 1 0 0 0 0 0 0 0 0 0 0 0 0 0 0 0 0 0 0 0 0 0 0 0 0
1 0 0 1 3 7 11 13 12 11 8 7 6 5 3 1 0 0 0 0 0 0 0 0 0 0 0 0 0 0 0 0 0 0 0 0 0 0 0 0 0 0 0
2 1 2 3 4 7 11 12 12 11 9 8 7 6 3 1 0 0 0 0 0 0 0 0 0 0 0 0 0 0 0 0 0 0 0 0 0 0 0 0 0 0 0
2 2 3 5 6 8 10 11 9 7 8 7 6 5 3 1 1 1 1 0 0 0 0 0 0 0 0 0 0 0 0 0 0 0 0 0 0 0 0 0 0 0 0
1 1 2 4 5 7 9 8 6 4 5 4 4 3 3 2 2 2 2 1 0 1 2 1 0 0 0 0 0 0 0 0 0 0 0 0 0 0 0 0 0 0 0
0 0 1 1 2 4 6 6 5 4 4 3 2 2 2 3 3 3 3 1 1 1 2 1 1 1 1 0 0 0 0 0 0 0 0 0 0 0 0 0 0 0 0
1 0 0 0 0 1 2 3 4 5 5 3 2 2 3 3 3 3 3 3 2 2 2 1 1 2 2 1 0 0 0 0 0 0 0 0 0 0 0 0 0 0 0
1 1 0 0 0 0 0 1 2 3 4 3 2 2 3 3 3 3 3 3 3 2 1 1 2 3 3 1 0 0 0 0 0 0 0 0 0 0 0 0 0 0 0
1 2 1 0 0 0 0 0 1 3 3 3 2 1 1 2 3 3 3 3 3 3 2 1 2 3 3 2 1 1 1 1 0 0 0 0 0 0 0 0 0 0 0
1 2 2 1 0 0 0 0 1 2 3 3 3 1 1 1 2 3 2 3 3 3 2 1 2 3 3 2 2 2 2 1 0 0 0 0 0 0 0 0 0 0 0
0 1 2 1 0 0 0 0 0 1 2 3 3 3 2 2 3 2 1 1 2 3 2 2 2 3 3 1 1 2 2 1 0 0 0 0 0 0 0 0 0 0 0
0 1 2 2 1 0 0 0 0 0 1 3 4 4 4 4 5 4 3 1 1 2 2 2 2 3 2 1 0 1 1 1 0 0 0 0 0 0 0 0 0 0 0
0 0 1 2 2 1 0 0 0 0 1 2 4 5 6 6 7 7 5 3 1 1 1 2 4 4 2 0 0 0 0 0 0 0 0 0 0 0 0 0 0 0 0
0 0 1 2 2 1 0 0 0 0 0 1 3 5 5 6 6 6 4 3 2 2 2 3 5 5 3 1 0 0 0 0 0 0 0 0 0 0 0 0 0 0 0
0 0 0 1 1 1 0 0 0 0 0 0 1 2 3 4 4 4 3 2 2 3 4 4 4 4 3 1 0 0 0 0 0 0 0 0 0 0 0 0 0 0 0
0 0 0 0 0 0 0 0 0 0 0 0 0 1 2 3 3 3 3 2 2 3 4 4 4 3 2 1 0 0 0 0 0 0 0 0 0 0 0 0 0 0 0
0 0 0 0 0 0 0 0 0 0 0 0 0 1 2 3 3 3 3 2 2 3 3 3 3 3 2 1 0 0 0 0 0 0 1 0 0 0 0 0 0 0 0
0 0 0 0 0 0 0 0 0 0 0 1 1 1 3 3 3 3 3 2 2 3 3 3 3 3 3 1 0 0 0 0 0 0 0 0 0 0 0 0 0 0 0
0 0 0 0 0 0 0 0 0 0 1 2 2 3 3 3 3 3 3 3 3 3 3 3 3 3 3 1 0 0 0 0 0 0 0 0 0 0 0 0 0 0 0
0 0 0 0 0 0 0 0 0 0 1 3 3 3 3 3 3 2 2 2 2 3 3 3 3 3 3 2 0 0 0 0 0 0 0 0 0 0 0 0 0 0 0
0 0 0 0 0 0 0 0 0 1 2 3 3 3 3 3 3 1 1 1 1 2 3 3 3 2 2 1 0 0 0 0 0 0 0 0 0 0 0 0 0 0 0
Wind_Speed
8 7 6 5 5 5 5 5 6 5 4 2 2 2 2 1 2 2 2 2 2 3 3 2 2 3 2 1 2 2 2 1 1 2 2 2 1 2 2 2 2 3 2
8 7 6 5 6 5 5 5 5 4 4 3 3 2 2 2 2 1 2 2 2 2 2 2 1 2 1 2 2 2 1 1 2 1 1 1 2 3 1 1 1 1 2
8 8 7 6 5 5 4 5 5 5 5 5 3 2 2 1 2 1 1 1 1 1 1 1 1 1 1 1 1 1 2 1 2 1 1 1 0 2 2 0 1 1 1
7 7 7 7 6 5 4 4 5 4 5 6 4 4 3 2 2 2 1 1 1 1 1 0 1 1 1 1 0 1 1 0 1 1 1 0 1 1 1 2 1 1 1
6 7 7 6 6 6 5 4 4 4 4 5 5 4 3 2 2 2 2 2 1 1 1 1 0 1 1 1 0 1 0 0 0 1 1 1 1 1 1 1 2 1 0
6 6 6 6 5 5 5 4 4 4 4 5 5 4 4 3 3 2 2 2 1 1 2 1 1 1 1 1 1 1 0 1 0 1 0 0 0 1 1 0 1 1 1
5 5 6 6 5 5 5 5 4 4 4 4 5 4 3 3 3 3 3 2 2 1 2 2 2 1 1 1 1 1 1 1 1 1 1 0 1 1 1 1 1 1 1
4 4 4 6 5 6 5 5 4 4 4 4 4 4 4 2 2 2 2 2 2 2 2 2 2 2 2 1 1 1 1 1 1 1 0 0 1 1 1 0 1 1 2
5 4 3 4 5 5 5 5 5 4 4 3 3 4 4 3 2 2 2 2 1 2 3 3 2 2 2 1 1 1 1 1 1 1 1 1 1 0 0 1 1 1 0
4 4 3 2 3 4 4 5 4 4 4 3 3 3 3 3 3 2 2 2 2 2 2 2 2 2 2 2 1 1 1 1 1 1 0 0 0 0 0 0 0 1 2
4 4 3 3 3 3 3 4 4 3 3 3 3 3 3 3 3 3 3 2 2 2 2 2 2 2 2 2 2 2 1 1 1 1 1 1 1 1 1 1 0 1 1
4 4 4 3 3 2 2 3 4 3 3 2 2 2 2 2 2 2 1 1 1 1 2 2 2 2 2 2 3 3 2 2 2 2 2 2 2 2 1 1 1 1 1
4 4 4 3 3 2 2 2 2 3 3 3 2 2 2 2 2 2 1 1 1 2 2 2 2 2 2 2 3 3 3 3 2 2 2 3 2 2 2 2 2 2 2
3 3 3 3 3 2 2 2 1 1 2 2 2 2 2 2 2 1 2 2 2 2 2 2 1 1 2 2 2 2 3 3 3 2 2 2 2 2 2 2 2 2 2
2 2 3 3 3 2 2 2 2 2 2 2 2 2 2 2 2 2 2 2 2 2 2 2 2 2 2 2 2 2 2 2 2 2 2 2 2 1 1 1 1 1 1
1 1 2 2 2 2 2 2 2 2 2 2 2 2 1 1 1 1 2 2 1 2 1 2 2 2 1 1 1 1 2 2 2 2 2 3 3 3 3 2 2 2 2
0 0 2 2 2 2 1 2 2 1 1 2 2 2 2 1 1 2 1 1 1 1 1 2 1 1 1 1 1 2 2 2 2 3 2 3 2 2 2 3 3 3 3
0 1 1 2 1 1 1 1 1 2 2 1 1 2 2 1 1 1 1 1 1 1 2 2 1 1 0 1 1 2 2 3 3 3 3 3 3 2 2 2 2 2 2
1 1 1 1 1 1 1 2 2 2 2 2 2 2 2 2 1 1 1 1 2 2 2 2 2 1 2 2 2 2 2 3 3 3 2 2 2 2 2 2 2 2 2
2 2 2 1 1 1 2 2 1 1 2 1 1 1 1 2 2 2 2 1 1 2 2 2 2 2 2 2 2 2 2 3 3 2 2 1 1 2 1 2 2 2 2
1 1 2 1 0 1 1 2 2 1 1 0 0 1 1 2 1 1 1 1 1 1 2 2 2 2 2 2 3 2 1 2 2 2 1 1 2 2 2 2 2 3 3
0 1 1 1 0 0 1 1 1 1 1 1 1 1 1 1 1 1 1 1 1 1 2 2 2 1 1 2 3 4 4 3 2 2 1 2 3 2 3 2 3 3 2
1 0 1 1 1 1 1 1 1 1 1 1 1 1 1 1 1 1 1 1 1 1 2 1 2 1 1 1 3 4 5 5 2 1 1 2 2 2 2 3 3 2 1
1 1 2 2 1 1 1 1 1 1 2 1 1 1 1 0 0 0 0 1 1 1 2 2 2 2 1 0 0 1 2 2 2 1 1 1 2 2 2 2 2 1 1
1 1 2 2 2 1 1 1 1 1 1 1 1 1 0 0 0 1 1 1 1 1 2 2 1 1 1 1 1 1 1 1 1 1 0 0 0 1 1 1 1 1 1
1 1 1 1 1 1 1 1 1 2 2 1 1 1 1 1 1 1 1 2 2 2 2 3 2 1 1 1 0 1 1 1 1 1 2 2 2 2 2 2 1 1 1
Wind_Direction
160 150 147 146 144 143 147 148 148 146 136 129 121 112 107 91 86 99 95 65 53 65 63 51 51 66 67 53 61 83 60 22 13 29 360 344 6 53 70 61 50 51 66
156 151 153 154 158 159 160 149 148 152 145 141 139 142 140 139 127 114 109 102 82 78 76 73 70 74 65 48 46 56 56 355 1 26 22 359 358 347 38 74 81 59 51
160 159 164 159 156 159 161 158 157 155 147 140 134 135 118 106 102 111 108 120 122 116 119 97 104 123 119 113 95 89 75 3 331 27 61 63 315 313 334 7 87 63 40
162 162 161 158 160 159 159 160 153 152 147 146 146 147 142 146 150 146 142 161 164 122 122 124 128 136 108 108 190 103 107 90 318 327 343 108 135 120 324 325 4 72 71
157 157 156 155 159 156 154 155 147 148 146 147 151 156 149 155 153 152 150 174 185 160 173 210 175 131 136 153 100 59 18 192 225 301 321 330 335 279 148 285 322 340 338
145 147 146 145 149 146 147 148 148 147 150 152 154 157 155 157 152 156 159 175 155 170 196 196 179 175 162 172 169 183 247 314 332 311 296 286 337 305 351 287 301 289 285
134 146 150 148 148 148 150 155 152 151 157 157 158 163 165 172 177 171 172 177 172 185 212 199 188 182 175 182 161 188 202 230 224 265 295 354 316 313 1 44 337 308 291
117 126 148 155 155 156 155 154 157 157 162 169 168 167 172 177 181 176 163 186 188 188 197 199 200 187 184 196 166 179 220 229 201 255 212 195 303 353 20 113 54 338 330
126 125 123 147 152 158 159 159 163 162 167 175 179 172 178 180 187 188 176 190 213 202 190 197 192 194 190 197 183 190 221 231 221 228 226 184 191 145 351 27 128 145 300
128 121 120 130 139 144 152 158 166 170 176 176 190 180 183 183 187 192 194 193 213 212 180 195 196 188 185 193 200 195 225 216 222 213 225 218 204 170 118 119 305 145 172
119 118 116 113 104 127 151 158 164 172 176 185 196 188 180 189 194 197 198 196 208 207 192 203 203 194 193 198 197 203 200 222 228 218 204 231 221 204 222 208 245 270 179
118 121 117 118 121 122 140 163 164 168 170 184 190 187 180 190 194 190 185 189 229 230 209 207 205 208 208 203 201 206 204 215 224 236 224 222 220 221 224 212 220 235 229
123 126 128 126 135 142 151 148 159 167 163 170 174 180 188 192 202 194 198 225 236 258 251 224 209 217 217 212 211 208 200 200 214 228 242 239 215 220 216 216 221 232 246
127 126 130 133 144 155 158 148 148 153 156 157 174 191 196 194 198 198 205 223 227 238 256 248 216 223 229 225 230 226 211 205 212 218 245 256 223 222 221 225 225 231 239
105 132 144 152 159 162 163 150 150 156 154 158 182 202 204 187 192 205 214 212 223 231 229 238 227 228 231 239 237 240 230 220 232 235 237 258 258 242 251 252 228 229 227
33 152 151 157 167 170 169 159 164 172 163 167 176 181 187 191 201 204 217 220 223 236 233 238 228 231 263 292 282 280 240 229 230 240 238 240 242 252 250 260 256 231 222
43 293 180 185 185 181 183 181 168 165 173 176 170 167 181 196 206 212 204 210 232 249 244 248 241 227 225 256 268 286 262 247 237 240 239 253 250 244 231 245 244 245 244
88 309 212 181 179 180 170 150 158 172 182 184 179 174 178 177 175 195 212 218 232 237 250 251 236 213 273 300 283 271 258 257 246 238 228 230 230 235 227 226 232 233 247
10 337 295 181 187 182 166 156 176 190 191 196 197 182 175 177 190 212 225 237 239 237 230 235 216 207 231 242 249 248 237 246 252 247 248 262 248 249 238 229 228 233 268
10 352 328 228 187 176 166 177 204 203 201 199 199 178 180 185 200 217 221 226 231 243 236 230 224 214 220 227 222 229 239 245 248 240 219 231 257 254 230 224 217 220 245
7 356 336 327 89 148 166 191 209 209 199 155 202 195 195 197 204 214 228 228 234 248 257 250 243 223 212 197 209 224 250 269 257 233 218 218 227 246 260 258 229 243 247
333 333 324 315 357 290 220 213 213 180 121 137 210 228 209 215 206 191 229 235 241 245 254 262 263 244 219 207 225 227 247 280 274 250 217 201 206 236 260 262 268 275 284
271 275 277 266 246 226 240 239 203 148 134 143 187 217 206 215 191 182 214 254 257 251 259 259 262 262 240 215 221 229 247 270 281 293 241 212 200 229 249 254 263 271 259
247 256 244 218 221 218 207 225 171 147 147 173 191 202 187 183 33 19 242 239 261 269 270 268 268 262 233 224 226 241 257 277 294 321 316 252 227 248 256 256 247 238 238
227 234 246 213 201 193 198 189 183 157 185 197 187 180 166 166 79 10 346 323 284 247 256 265 270 269 276 289 287 219 245 245 242 285 283 262 236 234 247 249 239 222 237
229 244 243 222 221 204 186 166 171 184 203 201 190 176 170 161 158 149 349 349 305 307 296 264 248 269 248 267 231 235 227 248 216 209 225 229 222 221 224 225 235 235 237